Regional Weather Roundup
Issued by NWS

Home | Current Version | Previous Version | Graphics & Text | Print | Product List | Glossary On
Versions: 1 2 3 4 5 6 7 8 9 10 11 12 13 14 15 16 17 18 19 20 21 22 23 24 25 26 27 28 29 30 31 32 33 34 35 36 37 38 39 40 41 42 43 44 45 46 47 48 49 50
000
ASUS45 KSLC 100710
RWRUT

UTAH REGIONAL WEATHER ROUNDUP
NATIONAL WEATHER SERVICE SALT LAKE CITY UT
1200 AM MST SAT DEC 10 2016

UTZ001>011-023>025-100800-

NORTHERN UTAH

CITY           SKY/WX    TMP DP  RH WIND       PRES   REMARKS
BRIGHAM CITY     N/A     32  30  92 CALM      30.04F
HILL AFB       CLOUDY    41  28  61 S6        30.04F
LOGAN          CLOUDY    33  33 100 NE8       30.04F FOG     WCI  26
OGDEN          CLOUDY    34  31  88 SE5       30.04F WCI  30
SALT LAKE CITY MOCLDY    33  30  88 CALM      30.04F
WENDOVER       MOCLDY    25  19  80 CALM      30.06F
HEBER CITY     MOCLDY    32  27  80 E5        30.07S WCI  27

$$

UTZ011>015-024>027-100800-

CENTRAL/NORTHEAST UTAH

CITY           SKY/WX    TMP DP  RH WIND       PRES   REMARKS
PROVO AIRPORT  CLOUDY    38  29  70 E5        30.10F WCI  34
MOAB/CANYONLAN MOCLDY    22  12  65 CALM      30.22F
DELTA          CLOUDY    43  32  65 S18       30.10F
PRICE          PTCLDY    21  12  68 N9        30.20F WCI  11
RICHFIELD      MOCLDY    30  25  80 N2        30.15F
ROOSEVELT      CLOUDY    18  14  86 CALM      30.20S
VERNAL         CLOUDY    17  12  80 SW3       30.17F

$$

UTZ013>016-019>022-027-100800-

SOUTHERN UTAH

CITY           SKY/WX    TMP DP  RH WIND       PRES   REMARKS
BRYCE CANYON   CLEAR     16  13  88 SW6       30.25F WCI   7
CEDAR CITY     PTCLDY    30  25  81 SE3       30.19F
MILFORD        PTCLDY    37  32  82 S23       30.15S WCI  26
ST GEORGE      PTSUNNY   37  25  60 CALM      30.25F
HANKSVILLE     PTCLDY    19   9  63 CALM      30.27F
KANAB          CLEAR     28  27  93 NE6       30.29S WCI  22
BLANDING       CLEAR     28  21  75 N5        30.31F WCI  23

$$

REGIONAL REPORTS     COLORADO/ARIZONA

CITY           SKY/WX    TMP DP  RH WIND       PRES   REMARKS
CRAIG, CO      CLOUDY    28  23  81 E6        30.13S WCI  22
GRAND JUNCTION CLOUDY    21  18  88 E3        30.23F
RIFLE, CO      CLOUDY    23  20  88 CALM      30.23F
MONTROSE, CO   CLOUDY    27  22  81 SE7       30.25S WCI  19
CORTEZ, CO     CLOUDY    24  22  91 CALM      30.27S
COLORADO CITY    N/A     28  27  93 S3        30.27F
PAGE, AZ       CLEAR     37  14  38 SW5       30.24S WCI  33
GRAND CANYON   CLEAR     25  24  96 CALM      30.28R
KINGMAN, AZ    CLEAR     36  29  75 CALM      30.23R
FLAGSTAFF, AZ  CLEAR     25  23  92 CALM      30.27F

$$

REGIONAL REPORTS    NEVADA/IDAHO/WYOMING

CITY           SKY/WX    TMP DP  RH WIND       PRES   REMARKS
LAS VEGAS, NV  PTCLDY    45  13  27 SW5       30.20F
ELY, NY        PTCLDY    27  21  78 S6        30.17F WCI  20
ELKO, NV       CLOUDY    38  28  67 NW9       30.04F WCI  31
POCATELLO, ID  LGT RAIN  38  33  82 S12       29.98F WCI  30
BURLEY, ID     LGT RAIN  37  34  89 W5        29.97S WCI  33
FORT BRIDGER,    N/A     34  22  61 W15G22    30.04S WCI  25
EVANSTON, WY   CLOUDY    31  21  66 SW10      30.05R WCI  22
ROCK SPRINGS,  CLOUDY    34  24  67 SW14      30.03F WCI  25
KEMMERER, WY     N/A     28  25  86 SW6       30.02F WCI  22

$$



USA.gov is the U.S. government's official web portal to all federal, state and local government web resources and services.